When you browse on this site, cookies collect data to enhance your experience and personalize the content and advertising you see.
Visit our Privacy Policy to learn more. By continuing to use the site, you agree to this use of cookies and data.
  • In Latvia
  • List of Countries
  • For 7 days
  • Water Temperature
  • Weather Map
  • Weather Widgets
  • user-avatar
    Login

    Hourly Weather Jasienie

    Today, 16 October, Wednesday

    Time Temperature Precipitation Wind Pressure Humidity
    00:00 +16°C° 0 mm 5 mps 744 mmHg 63%
    01:00 +16°C° 0 mm 5 mps 744 mmHg 60%
    02:00 +16°C° 0 mm 6 mps 744 mmHg 61%
    03:00 +16°C° 0 mm 6 mps 744 mmHg 63%
    04:00 +15°C° 0 mm 6 mps 743 mmHg 64%
    05:00 +15°C° 0 mm 6 mps 744 mmHg 69%
    06:00 +14°C° 0 mm 5 mps 744 mmHg 74%
    07:00 +14°C° 0 mm 5 mps 744 mmHg 79%
    08:00 +15°C° 0 mm 6 mps 745 mmHg 76%
    09:00 +16°C° 0 mm 7 mps 745 mmHg 73%
    10:00 +17°C° 0 mm 8 mps 746 mmHg 69%
    11:00 +17°C° 0 mm 7 mps 746 mmHg 68%
    12:00 +16°C° 0 mm 7 mps 747 mmHg 67%
    13:00 +16°C° 0 mm 6 mps 747 mmHg 66%
    14:00 +16°C° 0 mm 6 mps 747 mmHg 66%
    15:00 +16°C° 0 mm 5 mps 748 mmHg 66%
    16:00 +16°C° 0 mm 5 mps 748 mmHg 66%
    17:00 +15°C° 0 mm 5 mps 748 mmHg 66%
    18:00 +14°C° 0 mm 5 mps 748 mmHg 66%
    19:00 +13°C° 0 mm 5 mps 749 mmHg 67%
    20:00 +13°C° 0 mm 5 mps 749 mmHg 67%
    21:00 +12°C° 0 mm 5 mps 749 mmHg 67%
    22:00 +12°C° 0 mm 5 mps 749 mmHg 68%
    23:00 +12°C° 0 mm 5 mps 750 mmHg 69%

    Tomorrow, 17 October, Thursday

    Time Temperature Precipitation Wind Pressure Humidity
    00:00 +10°C° 0 mm 5 mps 750 mmHg 71%
    01:00 +11°C° 0 mm 4 mps 750 mmHg 72%
    02:00 +11°C° 0 mm 4 mps 750 mmHg 71%
    03:00 +11°C° 0 mm 4 mps 750 mmHg 70%
    04:00 +12°C° 0 mm 4 mps 750 mmHg 69%
    05:00 +12°C° 0 mm 4 mps 750 mmHg 68%
    06:00 +12°C° 0 mm 4 mps 750 mmHg 67%
    07:00 +12°C° 0 mm 4 mps 750 mmHg 66%
    08:00 +13°C° 0 mm 4 mps 750 mmHg 63%
    09:00 +14°C° 0 mm 4 mps 750 mmHg 59%
    10:00 +17°C° 0 mm 4 mps 750 mmHg 56%
    11:00 +17°C° 0 mm 4 mps 750 mmHg 53%
    12:00 +18°C° 0 mm 4 mps 750 mmHg 50%
    13:00 +19°C° 0 mm 4 mps 750 mmHg 46%
    14:00 +19°C° 0 mm 3 mps 750 mmHg 49%
    15:00 +18°C° 0 mm 2 mps 750 mmHg 51%
    16:00 +18°C° 0 mm 2 mps 750 mmHg 54%
    17:00 +17°C° 0 mm 2 mps 750 mmHg 56%
    18:00 +16°C° 0 mm 3 mps 750 mmHg 59%
    19:00 +14°C° 0 mm 3 mps 750 mmHg 61%
    20:00 +14°C° 0 mm 3 mps 751 mmHg 63%
    21:00 +14°C° 0 mm 3 mps 751 mmHg 65%
    22:00 +13°C° 0 mm 3 mps 751 mmHg 67%
    23:00 +13°C° 0 mm 3 mps 751 mmHg 71%

    Day after tomorrow, 18 October, Friday

    Time Temperature Precipitation Wind Pressure Humidity
    00:00 +13°C° 0 mm 3 mps 751 mmHg 76%
    01:00 +13°C° 0 mm 2 mps 751 mmHg 81%
    02:00 +13°C° 0 mm 2 mps 751 mmHg 82%
    03:00 +12°C° 0 mm 2 mps 751 mmHg 84%
    04:00 +12°C° 0 mm 1 mps 750 mmHg 85%
    05:00 +12°C° 0 mm 1 mps 751 mmHg 84%
    06:00 +12°C° 0 mm 1 mps 751 mmHg 83%
    07:00 +12°C° 0 mm 1 mps 751 mmHg 81%
    08:00 +13°C° 0 mm 1 mps 751 mmHg 75%
    09:00 +15°C° 0 mm 1 mps 751 mmHg 69%
    10:00 +16°C° 0 mm 1 mps 751 mmHg 63%
    11:00 +18°C° 0 mm 1 mps 751 mmHg 59%
    12:00 +19°C° 0 mm 1 mps 750 mmHg 56%
    13:00 +20°C° 0 mm 1 mps 750 mmHg 52%
    14:00 +20°C° 0 mm 1 mps 750 mmHg 55%
    15:00 +19°C° 0 mm 1 mps 750 mmHg 58%
    16:00 +19°C° 0 mm 1 mps 750 mmHg 61%
    17:00 +18°C° 0 mm 1 mps 750 mmHg 63%
    18:00 +16°C° 0 mm 1 mps 750 mmHg 65%
    19:00 +16°C° 0 mm 1 mps 750 mmHg 67%
    20:00 +15°C° 0 mm 1 mps 750 mmHg 69%
    21:00 +15°C° 0 mm 2 mps 750 mmHg 71%
    22:00 +15°C° 0 mm 2 mps 750 mmHg 73%
    23:00 +15°C° 0 mm 2 mps 750 mmHg 76%

    19 October, Saturday

    Time Temperature Precipitation Wind Pressure Humidity
    00:00 +14°C° 0 mm 2 mps 750 mmHg 79%
    01:00 +14°C° 0 mm 2 mps 749 mmHg 82%
    02:00 +14°C° 0 mm 2 mps 749 mmHg 83%
    03:00 +14°C° 0 mm 2 mps 749 mmHg 84%
    04:00 +14°C° 0 mm 2 mps 749 mmHg 85%
    05:00 +14°C° 0 mm 2 mps 748 mmHg 85%
    06:00 +12°C° 0 mm 3 mps 748 mmHg 84%
    07:00 +12°C° 0 mm 3 mps 748 mmHg 84%
    08:00 +13°C° 0 mm 3 mps 747 mmHg 81%
    09:00 +15°C° 0 mm 2 mps 747 mmHg 79%
    10:00 +16°C° 0 mm 2 mps 747 mmHg 76%
    11:00 +17°C° 0 mm 2 mps 746 mmHg 73%
    12:00 +17°C° 0 mm 3 mps 746 mmHg 70%
    13:00 +18°C° 0 mm 3 mps 746 mmHg 67%
    14:00 +18°C° 0 mm 3 mps 745 mmHg 68%
    15:00 +18°C° 0 mm 2 mps 745 mmHg 68%
    16:00 +18°C° 0 mm 2 mps 745 mmHg 69%
    17:00 +17°C° 0 mm 2 mps 745 mmHg 72%
    18:00 +16°C° 0 mm 2 mps 745 mmHg 75%
    19:00 +15°C° 0 mm 2 mps 745 mmHg 77%
    20:00 +15°C° 0 mm 2 mps 745 mmHg 79%
    21:00 +14°C° 0 mm 2 mps 745 mmHg 80%
    22:00 +14°C° 0 mm 2 mps 745 mmHg 82%
    23:00 +13°C° 0 mm 2 mps 745 mmHg 84%

    20 October, Sunday

    Time Temperature Precipitation Wind Pressure Humidity
    00:00 +13°C° 0 mm 2 mps 745 mmHg 86%
    01:00 +12°C° 0 mm 2 mps 746 mmHg 88%
    02:00 +12°C° 0 mm 2 mps 746 mmHg 89%
    03:00 +12°C° 0 mm 2 mps 746 mmHg 90%
    04:00 +12°C° 0 mm 2 mps 746 mmHg 91%
    05:00 +12°C° 0 mm 2 mps 746 mmHg 91%
    06:00 +10°C° 0 mm 2 mps 747 mmHg 91%
    07:00 +10°C° 0 mm 2 mps 747 mmHg 91%
    08:00 +13°C° 0 mm 2 mps 747 mmHg 85%
    09:00 +13°C° 0 mm 3 mps 748 mmHg 79%
    10:00 +14°C° 0 mm 3 mps 748 mmHg 74%
    11:00 +16°C° 0 mm 3 mps 749 mmHg 72%
    12:00 +16°C° 0 mm 3 mps 749 mmHg 71%
    13:00 +17°C° 0 mm 3 mps 749 mmHg 70%
    14:00 +16°C° 0 mm 2 mps 749 mmHg 73%
    15:00 +16°C° 0 mm 2 mps 750 mmHg 77%
    16:00 +15°C° 0 mm 2 mps 750 mmHg 80%
    17:00 +14°C° 0 mm 1 mps 750 mmHg 83%
    18:00 +13°C° 0 mm 1 mps 751 mmHg 87%
    19:00 +13°C° 0 mm 1 mps 751 mmHg 90%
    20:00 +13°C° 0 mm 1 mps 751 mmHg 89%
    21:00 +12°C° 0 mm 0 mps 751 mmHg 88%
    22:00 +12°C° 0 mm 0 mps 751 mmHg 87%
    23:00 +13°C° 0.1 mm 1 mps 751 mmHg 87%

    21 October, Monday

    Time Temperature Precipitation Wind Pressure Humidity
    00:00 +13°C° 0.1 mm 1 mps 751 mmHg 88%
    01:00 +13°C° 0.1 mm 1 mps 751 mmHg 88%
    02:00 +13°C° 1.3 mm 2 mps 751 mmHg 90%
    03:00 +13°C° 1.3 mm 2 mps 751 mmHg 93%
    04:00 +13°C° 1.3 mm 2 mps 751 mmHg 95%
    05:00 +12°C° 0.6 mm 3 mps 751 mmHg 95%
    06:00 +12°C° 0.6 mm 3 mps 751 mmHg 95%
    07:00 +12°C° 0.6 mm 4 mps 751 mmHg 95%
    08:00 +12°C° 0.2 mm 3 mps 750 mmHg 94%
    09:00 +12°C° 0.2 mm 3 mps 750 mmHg 92%
    10:00 +13°C° 0.2 mm 3 mps 750 mmHg 91%
    11:00 +13°C° 0.8 mm 3 mps 750 mmHg 91%
    12:00 +13°C° 0.8 mm 3 mps 750 mmHg 91%
    13:00 +14°C° 0.8 mm 2 mps 750 mmHg 92%
    14:00 +14°C° 0.1 mm 2 mps 750 mmHg 91%
    15:00 +14°C° 0.1 mm 2 mps 750 mmHg 91%
    16:00 +14°C° 0.1 mm 2 mps 750 mmHg 91%
    17:00 +14°C° 0.2 mm 2 mps 750 mmHg 92%
    18:00 +14°C° 0.2 mm 2 mps 751 mmHg 94%
    19:00 +13°C° 0.2 mm 2 mps 751 mmHg 95%
    20:00 +13°C° 0.1 mm 2 mps 751 mmHg 95%
    21:00 +13°C° 0.1 mm 2 mps 752 mmHg 96%
    22:00 +13°C° 0.1 mm 2 mps 752 mmHg 96%
    23:00 +12°C° 0.1 mm 3 mps 752 mmHg 96%
    Show more